Overview Statistics Trail Chart Weather Telemetry Raw packets
 

This is the latest recevied weather packets stored in our database for station/object S56VIL-11. If no packets are shown the sender has not sent any weather packets the latest 10 day(s).

<< 17 18 19 20 21 22 23 >>
Time Temp. Humidity Pressure Rain* Wind** Luminosity Snow
1788213286 20.56° C 65% 1030.8 hPa - - - -
1788212386 20.56° C 66% 1030.8 hPa - - - -
1788211486 20° C 66% 1031 hPa - - - -
1788210586 20.56° C 65% 1030.2 hPa - - - -
1788209686 21.11° C 65% 1030.1 hPa - - - -
1788208786 21.11° C 65% 1030.1 hPa - - - -
1788207886 20.56° C 65% 1030.1 hPa - - - -
1788206986 21.11° C 64% 1030 hPa - - - -
1788206086 21.11° C 64% 1030 hPa - - - -
1788205185 21.11° C 64% 1030 hPa - - - -
1788204286 21.67° C 64% 1029.9 hPa - - - -
1788203386 21.67° C 63% 1029.6 hPa - - - -
1788202485 21.67° C 63% 1029.4 hPa - - - -
1788201585 21.11° C 63% 1029.2 hPa - - - -
1788200685 21.11° C 63% 1029 hPa - - - -
1788199785 21.67° C 63% 1028.5 hPa - - - -
1788198885 22.22° C 62% 1028.4 hPa - - - -
1788197985 22.78° C 61% 1028.4 hPa - - - -
1788197085 22.78° C 61% 1028.3 hPa - - - -
1788196185 23.33° C 61% 1028.5 hPa - - - -
1788195285 23.89° C 61% 1028.6 hPa - - - -
1788194385 25.56° C 59% 1028.7 hPa - - - -
1788193485 26.11° C 60% 1028.8 hPa - - - -
1788192585 26.11° C 60% 1028.7 hPa - - - -
1788191685 26.11° C 60% 1028.8 hPa - - - -

* Rain since midnight (hover to see other rain measurements)
** Current wind speed in m/s (hover to see current wind gust speed)